| time (UTC) | temp C | wind direction | speed KPH | gust KPH | rain 1hr cm | rain 24hr cm | rain mn cm | humidity % | barometer mb |
| 20260504202547 | 20 | 284 | 1.6 | 17.7 | 0.00 | 0.00 | 0.00 | 44 | 1007.1 |
| 20260504202048 | 20 | 323 | 6.4 | 20.9 | 0.00 | 0.00 | 0.00 | 45 | 1007.2 |
| 20260504201601 | 20 | 331 | 3.2 | 20.9 | 0.00 | 0.00 | 0.00 | 46 | 1007.3 |
| 20260504201048 | 20 | 314 | 6.4 | 19.3 | 0.00 | 0.00 | 0.00 | 43 | 1007.2 |
| 20260504200548 | 20 | 307 | 3.2 | 12.9 | 0.00 | 0.00 | 0.00 | 43 | 1007.4 |
| 20260504200058 | 20 | 315 | 0.0 | 14.5 | 0.00 | 0.00 | 0.00 | 46 | 1007.3 |
| 20260504195547 | 20 | 348 | 4.8 | 14.5 | 0.00 | 0.00 | 0.00 | 43 | 1007.5 |
| 20260504195047 | 20 | 347 | 3.2 | 9.7 | 0.00 | 0.00 | 0.00 | 43 | 1007.5 |
| 20260504194559 | 21 | 360 | 1.6 | 17.7 | 0.00 | 0.00 | 0.00 | 42 | 1007.6 |
| 20260504194047 | 20 | 291 | 3.2 | 17.7 | 0.00 | 0.00 | 0.00 | 42 | 1007.6 |
| 20260504193547 | 20 | 311 | 4.8 | 17.7 | 0.00 | 0.00 | 0.00 | 44 | 1007.7 |
| 20260504193109 | 20 | 264 | 6.4 | 12.9 | 0.00 | 0.00 | 0.00 | 43 | 1007.6 |
| 20260504192547 | 20 | 262 | 1.6 | 22.5 | 0.00 | 0.00 | 0.00 | 43 | 1007.7 |
| 20260504192048 | 20 | 319 | 3.2 | 22.5 | 0.00 | 0.00 | 0.00 | 44 | 1008.0 |
| 20260504191610 | 20 | 36 | 8.0 | 22.5 | 0.00 | 0.00 | 0.00 | 42 | 1008.0 |
| 20260504191048 | 20 | 352 | 4.8 | 19.3 | 0.00 | 0.00 | 0.00 | 45 | 1008.0 |
| 20260504190548 | 20 | 300 | 6.4 | 19.3 | 0.00 | 0.00 | 0.00 | 44 | 1008.1 |
| 20260504190107 | 20 | 338 | 6.4 | 19.3 | 0.00 | 0.00 | 0.00 | 42 | 1008.1 |
| 20260504185548 | 20 | 41 | 4.8 | 12.9 | 0.00 | 0.00 | 0.00 | 42 | 1008.2 |
| 20260504185047 | 20 | 317 | 3.2 | 14.5 | 0.00 | 0.00 | 0.00 | 44 | 1008.3 |
| 20260504184556 | 20 | 333 | 3.2 | 14.5 | 0.00 | 0.00 | 0.00 | 44 | 1008.4 |
| 20260504184049 | 20 | 14 | 4.8 | 19.3 | 0.00 | 0.00 | 0.00 | 43 | 1008.2 |
| 20260504183551 | 20 | 15 | 1.6 | 19.3 | 0.00 | 0.00 | 0.00 | 45 | 1008.2 |
| 20260504183053 | 20 | 38 | 6.4 | 33.8 | 0.00 | 0.00 | 0.00 | 43 | 1008.4 |
| 20260504182546 | 20 | 71 | 8.0 | 33.8 | 0.00 | 0.00 | 0.00 | 46 | 1008.4 |
| 20260504182047 | 20 | 274 | 1.6 | 14.5 | 0.00 | 0.00 | 0.00 | 44 | 1008.5 |
| 20260504181603 | 20 | 354 | 3.2 | 14.5 | 0.00 | 0.00 | 0.00 | 47 | 1008.7 |
| 20260504181047 | 20 | 262 | 4.8 | 14.5 | 0.00 | 0.00 | 0.00 | 47 | 1008.5 |
| 20260504180547 | 20 | 350 | 3.2 | 20.9 | 0.00 | 0.00 | 0.00 | 43 | 1008.7 |
| 20260504180055 | 20 | 85 | 4.8 | 20.9 | 0.00 | 0.00 | 0.00 | 45 | 1008.6 |
| 20260504175549 | 20 | 333 | 4.8 | 16.1 | 0.00 | 0.00 | 0.00 | 43 | 1008.8 |
| 20260504175048 | 20 | 356 | 3.2 | 17.7 | 0.00 | 0.00 | 0.00 | 42 | 1008.7 |
| 20260504174552 | 20 | 220 | 4.8 | 17.7 | 0.00 | 0.00 | 0.00 | 44 | 1008.6 |
| 20260504174047 | 19 | 336 | 3.2 | 17.7 | 0.00 | 0.00 | 0.00 | 43 | 1008.7 |
| 20260504173548 | 19 | 304 | 4.8 | 17.7 | 0.00 | 0.00 | 0.00 | 43 | 1008.7 |
| 20260504173056 | 19 | 205 | 3.2 | 16.1 | 0.00 | 0.00 | 0.00 | 47 | 1008.8 |
| 20260504172547 | 19 | 55 | 4.8 | 16.1 | 0.00 | 0.00 | 0.00 | 44 | 1008.9 |
| 20260504172048 | 19 | 0 | 4.8 | 16.1 | 0.00 | 0.00 | 0.00 | 44 | 1008.9 |
| 20260504171554 | 18 | 309 | 4.8 | 12.9 | 0.00 | 0.00 | 0.00 | 45 | 1008.8 |
| 20260504171047 | 19 | 156 | 4.8 | 14.5 | 0.00 | 0.00 | 0.00 | 45 | 1009.0 |
| 20260504170547 | 18 | 323 | 4.8 | 14.5 | 0.00 | 0.00 | 0.00 | 47 | 1009.1 |
| 20260504151049 | 16 | 297 | 3.2 | 14.5 | 0.00 | 0.00 | 0.00 | 45 | 1010.3 |
| 20260504150545 | 16 | 276 | 3.2 | 14.5 | 0.00 | 0.00 | 0.00 | 46 | 1010.3 |
| 20260504141044 | 15 | 290 | 6.4 | 20.9 | 0.00 | 0.00 | 0.00 | 48 | 1010.9 |
| 20260504140548 | 15 | 308 | 4.8 | 14.5 | 0.00 | 0.00 | 0.00 | 44 | 1010.8 |
| 20260504130548 | 11 | 0 | 3.2 | 12.9 | 0.00 | 0.00 | 0.00 | 53 | 1011.3 |
| 20260504110545 | 7 | 291 | 3.2 | 12.9 | 0.00 | 0.00 | 0.00 | 60 | 1011.2 |
| 20260504100548 | 6 | 299 | 1.6 | 8.0 | 0.00 | 0.00 | 0.00 | 63 | 1011.0 |
| 20260504081554 | 6 | 343 | 1.6 | 6.4 | 0.00 | 0.00 | 0.00 | 64 | 1011.4 |
| 20260504081047 | 6 | 314 | 1.6 | 4.8 | 0.00 | 0.00 | 0.00 | 63 | 1011.4 |
| 20260504080547 | 6 | 340 | 1.6 | 3.2 | 0.00 | 0.00 | 0.00 | 63 | 1011.3 |
| 20260504050548 | 2 | 0 | 0.0 | 1.6 | 0.00 | 0.00 | 0.00 | 79 | 1011.5 |
| 20260504045548 | 2 | 0 | 0.0 | 1.6 | 0.00 | 0.00 | 0.00 | 79 | 1011.5 |
| 20260504045048 | 2 | 0 | 0.0 | 1.6 | 0.00 | 0.00 | 0.00 | 80 | 1011.4 |
| 20260504044555 | 2 | 0 | 0.0 | 1.6 | 0.00 | 0.00 | 0.00 | 80 | 1011.3 |
| 20260504044049 | 2 | 343 | 0.0 | 0.0 | 0.00 | 0.00 | 0.00 | 80 | 1011.4 |
| 20260504043548 | 2 | 0 | 0.0 | 0.0 | 0.00 | 0.00 | 0.00 | 81 | 1011.2 |
| 20260504043059 | 2 | 0 | 0.0 | 0.0 | 0.00 | 0.00 | 0.00 | 82 | 1011.3 |
| 20260504042548 | 2 | 0 | 0.0 | 1.6 | 0.00 | 0.00 | 0.00 | 81 | 1011.4 |
| 20260504042049 | 2 | 0 | 0.0 | 1.6 | 0.00 | 0.00 | 0.00 | 81 | 1011.3 |
| 20260504041555 | 2 | 0 | 0.0 | 0.0 | 0.00 | 0.00 | 0.00 | 81 | 1011.1 |
| 20260504041048 | 2 | 0 | 0.0 | 0.0 | 0.00 | 0.00 | 0.00 | 80 | 1011.2 |
| 20260504040547 | 2 | 0 | 0.0 | 0.0 | 0.00 | 0.00 | 0.00 | 80 | 1011.2 |
| 20260504040128 | 2 | 0 | 0.0 | 0.0 | 0.00 | 0.00 | 0.00 | 80 | 1011.3 |
| 20260504035545 | 2 | 0 | 0.0 | 0.0 | 0.00 | 0.00 | 0.00 | 80 | 1011.2 |
| 20260504035048 | 2 | 0 | 0.0 | 0.0 | 0.00 | 0.00 | 0.00 | 80 | 1011.2 |
| 20260504034600 | 2 | 0 | 0.0 | 0.0 | 0.00 | 0.00 | 0.00 | 79 | 1011.2 |
| 20260504034048 | 2 | 0 | 0.0 | 0.0 | 0.00 | 0.00 | 0.00 | 79 | 1011.3 |
| 20260504033548 | 2 | 0 | 0.0 | 0.0 | 0.00 | 0.00 | 0.00 | 79 | 1011.2 |
| 20260504033050 | 2 | 0 | 0.0 | 0.0 | 0.00 | 0.00 | 0.00 | 79 | 1011.1 |
| 20260504032548 | 2 | 0 | 0.0 | 0.0 | 0.00 | 0.00 | 0.00 | 79 | 1011.2 |
| 20260504032048 | 3 | 0 | 0.0 | 0.0 | 0.00 | 0.00 | 0.00 | 79 | 1011.2 |
| 20260504031601 | 3 | 0 | 0.0 | 1.6 | 0.00 | 0.00 | 0.00 | 78 | 1011.2 |
| 20260504031051 | 3 | 0 | 0.0 | 1.6 | 0.00 | 0.00 | 0.00 | 79 | 1011.2 |
| 20260504030547 | 3 | 0 | 0.0 | 0.0 | 0.00 | 0.00 | 0.00 | 78 | 1011.0 |
| 20260504030053 | 2 | 0 | 0.0 | 0.0 | 0.00 | 0.00 | 0.00 | 78 | 1011.1 |
| 20260504025549 | 3 | 0 | 0.0 | 0.0 | 0.00 | 0.00 | 0.00 | 78 | 1011.2 |
| 20260504025047 | 2 | 0 | 0.0 | 0.0 | 0.00 | 0.00 | 0.00 | 78 | 1011.3 |
| 20260504024555 | 3 | 0 | 0.0 | 0.0 | 0.00 | 0.00 | 0.00 | 78 | 1011.3 |
| 20260504024049 | 2 | 0 | 0.0 | 0.0 | 0.00 | 0.00 | 0.00 | 78 | 1011.2 |
| 20260504023548 | 3 | 0 | 0.0 | 0.0 | 0.00 | 0.00 | 0.00 | 78 | 1011.3 |
| 20260504023049 | 3 | 0 | 0.0 | 0.0 | 0.00 | 0.00 | 0.00 | 78 | 1011.2 |
| 20260504022548 | 3 | 0 | 0.0 | 0.0 | 0.00 | 0.00 | 0.00 | 78 | 1011.2 |
| 20260504022048 | 3 | 0 | 0.0 | 0.0 | 0.00 | 0.00 | 0.00 | 78 | 1011.2 |
| 20260504021554 | 3 | 0 | 0.0 | 0.0 | 0.00 | 0.00 | 0.00 | 78 | 1011.2 |
| 20260504021045 | 3 | 0 | 0.0 | 0.0 | 0.00 | 0.00 | 0.00 | 78 | 1011.2 |
| 20260504020548 | 3 | 0 | 0.0 | 0.0 | 0.00 | 0.00 | 0.00 | 78 | 1011.1 |
| 20260504020107 | 3 | 0 | 0.0 | 0.0 | 0.00 | 0.00 | 0.00 | 77 | 1011.2 |
| 20260504015552 | 3 | 0 | 0.0 | 1.6 | 0.00 | 0.00 | 0.00 | 77 | 1011.1 |
| 20260504015049 | 3 | 0 | 0.0 | 1.6 | 0.00 | 0.00 | 0.00 | 77 | 1011.1 |
| 20260504014554 | 3 | 0 | 0.0 | 1.6 | 0.00 | 0.00 | 0.00 | 77 | 1011.1 |
| 20260504014048 | 3 | 0 | 0.0 | 1.6 | 0.00 | 0.00 | 0.00 | 77 | 1011.1 |
| 20260504013547 | 3 | 0 | 0.0 | 1.6 | 0.00 | 0.00 | 0.00 | 76 | 1011.0 |
| 20260504013051 | 3 | 0 | 0.0 | 0.0 | 0.00 | 0.00 | 0.00 | 76 | 1011.1 |
| 20260504012549 | 4 | 0 | 0.0 | 0.0 | 0.00 | 0.00 | 0.00 | 76 | 1011.0 |
| 20260504012046 | 4 | 0 | 0.0 | 0.0 | 0.00 | 0.00 | 0.00 | 75 | 1011.0 |
| 20260504011553 | 4 | 0 | 0.0 | 1.6 | 0.00 | 0.00 | 0.00 | 76 | 1010.9 |
| 20260504011048 | 5 | 0 | 0.0 | 1.6 | 0.00 | 0.00 | 0.00 | 75 | 1010.8 |
| 20260504010548 | 5 | 0 | 0.0 | 0.0 | 0.00 | 0.00 | 0.00 | 74 | 1010.8 |
| 20260504010056 | 5 | 0 | 0.0 | 0.0 | 0.00 | 0.00 | 0.00 | 73 | 1010.8 |
| 20260504005548 | 5 | 0 | 0.0 | 0.0 | 0.00 | 0.00 | 0.00 | 73 | 1010.7 |
| 20260504005052 | 5 | 0 | 0.0 | 1.6 | 0.00 | 0.00 | 0.00 | 71 | 1010.7 |
| 20260504004556 | 6 | 0 | 0.0 | 1.6 | 0.00 | 0.00 | 0.00 | 70 | 1010.8 |
| 20260504004045 | 6 | 0 | 0.0 | 1.6 | 0.00 | 0.00 | 0.00 | 70 | 1010.7 |
| 20260504003547 | 6 | 0 | 0.0 | 1.6 | 0.00 | 0.00 | 0.00 | 69 | 1010.7 |
| 20260504003053 | 6 | 0 | 0.0 | 0.0 | 0.00 | 0.00 | 0.00 | 68 | 1010.6 |
| 20260504002547 | 7 | 0 | 0.0 | 0.0 | 0.00 | 0.00 | 0.00 | 67 | 1010.6 |
| 20260504002047 | 7 | 0 | 0.0 | 0.0 | 0.00 | 0.00 | 0.00 | 66 | 1010.5 |
| 20260504001559 | 8 | 0 | 0.0 | 0.0 | 0.00 | 0.00 | 0.00 | 63 | 1010.4 |
| 20260504001051 | 8 | 0 | 0.0 | 0.0 | 0.00 | 0.00 | 0.00 | 62 | 1010.3 |
| 20260504000549 | 9 | 0 | 0.0 | 0.0 | 0.00 | 0.00 | 0.00 | 60 | 1010.3 |
| 20260504000059 | 10 | 0 | 0.0 | 0.0 | 0.00 | 0.00 | 0.00 | 60 | 1010.2 |
| 20260503235549 | 10 | 0 | 0.0 | 0.0 | 0.00 | 0.00 | 0.00 | 55 | 1010.1 |
| 20260503235051 | 10 | 0 | 0.0 | 0.0 | 0.00 | 0.00 | 0.00 | 51 | 1010.2 |
| 20260503234623 | 11 | 0 | 0.0 | 0.0 | 0.00 | 0.00 | 0.00 | 49 | 1010.2 |
| 20260503234053 | 11 | 0 | 0.0 | 1.6 | 0.00 | 0.00 | 0.00 | 48 | 1010.1 |
| 20260503233548 | 11 | 320 | 0.0 | 3.2 | 0.00 | 0.00 | 0.00 | 47 | 1010.0 |
| 20260503233053 | 11 | 0 | 0.0 | 3.2 | 0.00 | 0.00 | 0.00 | 46 | 1010.2 |
| 20260503232547 | 11 | 339 | 0.0 | 1.6 | 0.00 | 0.00 | 0.00 | 46 | 1010.1 |
| 20260503232047 | 12 | 0 | 0.0 | 4.8 | 0.00 | 0.00 | 0.00 | 47 | 1010.0 |
| 20260503231553 | 12 | 352 | 0.0 | 4.8 | 0.00 | 0.00 | 0.00 | 47 | 1010.0 |
| 20260503231048 | 12 | 331 | 0.0 | 4.8 | 0.00 | 0.00 | 0.00 | 44 | 1009.9 |
| 20260503230548 | 12 | 0 | 0.0 | 3.2 | 0.00 | 0.00 | 0.00 | 45 | 1010.0 |
| 20260503230052 | 12 | 20 | 1.6 | 4.8 | 0.00 | 0.00 | 0.00 | 45 | 1010.0 |
| 20260503225547 | 12 | 31 | 1.6 | 6.4 | 0.00 | 0.00 | 0.00 | 44 | 1009.9 |
| 20260503225048 | 12 | 18 | 3.2 | 6.4 | 0.00 | 0.00 | 0.00 | 45 | 1009.9 |
| 20260503224550 | 12 | 32 | 3.2 | 6.4 | 0.00 | 0.00 | 0.00 | 43 | 1009.9 |
| 20260503224048 | 12 | 115 | 3.2 | 6.4 | 0.00 | 0.00 | 0.00 | 44 | 1009.9 |
| 20260503223547 | 12 | 62 | 3.2 | 8.0 | 0.00 | 0.00 | 0.00 | 46 | 1009.8 |
| 20260503223050 | 12 | 97 | 3.2 | 8.0 | 0.00 | 0.00 | 0.00 | 45 | 1010.0 |
| 20260503222552 | 12 | 77 | 4.8 | 8.0 | 0.00 | 0.00 | 0.00 | 44 | 1010.0 |
| 20260503222048 | 12 | 89 | 4.8 | 8.0 | 0.00 | 0.00 | 0.00 | 45 | 1010.0 |
| 20260503221557 | 12 | 109 | 3.2 | 8.0 | 0.00 | 0.00 | 0.00 | 44 | 1009.9 |
| 20260503221048 | 12 | 31 | 4.8 | 8.0 | 0.00 | 0.00 | 0.00 | 43 | 1009.9 |
| 20260503220548 | 12 | 94 | 4.8 | 8.0 | 0.00 | 0.00 | 0.00 | 44 | 1010.0 |
| 20260503220059 | 12 | 42 | 1.6 | 9.7 | 0.00 | 0.00 | 0.00 | 44 | 1010.1 |
| 20260503215548 | 12 | 79 | 4.8 | 9.7 | 0.00 | 0.00 | 0.00 | 41 | 1009.9 |
| 20260503215049 | 13 | 93 | 4.8 | 9.7 | 0.00 | 0.00 | 0.00 | 41 | 1010.0 |
| 20260503214556 | 13 | 115 | 3.2 | 9.7 | 0.00 | 0.00 | 0.00 | 43 | 1009.9 |
| 20260503214053 | 13 | 60 | 4.8 | 11.3 | 0.00 | 0.00 | 0.00 | 42 | 1009.7 |
| 20260503213547 | 13 | 105 | 6.4 | 11.3 | 0.00 | 0.00 | 0.00 | 44 | 1009.7 |
| 20260503213053 | 13 | 75 | 6.4 | 11.3 | 0.00 | 0.00 | 0.00 | 42 | 1009.7 |
| 20260503212548 | 12 | 97 | 3.2 | 11.3 | 0.00 | 0.00 | 0.00 | 44 | 1009.6 |
| 20260503212048 | 12 | 252 | 3.2 | 11.3 | 0.00 | 0.00 | 0.00 | 43 | 1009.7 |
| 20260503211559 | 12 | 104 | 6.4 | 11.3 | 0.00 | 0.00 | 0.00 | 42 | 1009.8 |
| 20260503211049 | 12 | 106 | 4.8 | 11.3 | 0.00 | 0.00 | 0.00 | 44 | 1009.8 |
| 20260503210547 | 12 | 108 | 4.8 | 12.9 | 0.00 | 0.00 | 0.00 | 44 | 1009.8 |
| 20260503210054 | 12 | 82 | 3.2 | 12.9 | 0.00 | 0.00 | 0.00 | 44 | 1009.7 |
| 20260503205550 | 12 | 96 | 6.4 | 12.9 | 0.00 | 0.00 | 0.00 | 42 | 1009.8 |
| 20260503205050 | 12 | 80 | 3.2 | 9.7 | 0.00 | 0.00 | 0.00 | 43 | 1009.7 |
| 20260503204557 | 12 | 93 | 3.2 | 6.4 | 0.00 | 0.00 | 0.00 | 44 | 1009.7 |
| 20260503204047 | 12 | 80 | 3.2 | 6.4 | 0.00 | 0.00 | 0.00 | 42 | 1009.6 |
| 20260503203547 | 12 | 42 | 3.2 | 8.0 | 0.00 | 0.00 | 0.00 | 42 | 1009.6 |
| 20260503203057 | 12 | 35 | 3.2 | 8.0 | 0.00 | 0.00 | 0.00 | 43 | 1009.7 |